Regional Weather Roundup
Issued by NWS

Home | Current Version | Previous Version | Text Only | Print | Product List | Glossary On
Versions: 1 2 3 4 5 6 7 8 9 10 11 12 13 14 15 16 17 18 19 20 21 22 23 24 25 26 27 28 29 30 31 32 33 34 35 36 37 38 39 40 41 42 43 44 45 46 47 48 49
000
ASUS46 KSEW 312310
RWRWA

WASHINGTON REGIONAL WEATHER ROUNDUP
NATIONAL WEATHER SERVICE SEATTLE WA
400 PM PDT MON AUG 31 2015

NOTE:"FAIR" INDICATES FEW OR NO CLOUDS BELOW 12,000 FEET WITH NO
SIGNIFICANT WEATHER AND/OR OBSTRUCTIONS TO VISIBILITY.

WAZ505-507>509-010000-
SEATTLE, TACOMA, EVERETT, AND VICINITY

CITY           SKY/WX    TMP DP  RH WIND       PRES   REMARKS
EVERETT        LGT RAIN  61  56  83 S18G25    29.92S
BOEING FIELD   CLOUDY    68  55  63 S9G17     29.94S
RENTON         PTSUNNY   68  55  63 SE17G23   29.94F
SEATAC AIRPORT CLOUDY    65  56  72 S10G22    29.96F
JBLM-MCCHORD   CLOUDY    64  58  78 S13       29.96F
PUYALLUP       PTSUNNY   61  61 100 W8        29.98S
BREMERTON      CLOUDY    64  61  88 S14       29.97S
JBLM-FT LEWIS  PTSUNNY   65  59  81 S14       29.95F
TACOMA NARROWS CLOUDY    65  57  75 S14       29.96S
$$

WAZ001-503-506-510-514-515-010000-
NORTH INTERIOR

CITY           SKY/WX    TMP DP  RH WIND       PRES   REMARKS
BELLINGHAM     LGT RAIN  60  58  92 S14G22    29.87F
FRIDAY HARBOR  LGT RAIN  58  57  97 SE5       29.89F
EASTSOUND      LGT RAIN  59  57  94 S9        29.85F
PORT ANGELES   CLOUDY    61  55  81 VRB3      29.87F
PORT TOWNSEND  PTSUNNY   63  61  94 CALM      29.88F
NAS WHIDBEY    LGT RAIN  60  59  96 SE14      29.93S FOG
ARLINGTON      CLOUDY    61  54  77 SE14      29.91S
BURLINGTON     PTSUNNY   61  59  94 S8G14     29.90S FOG
$$

WAZ020-022-039-040-504-511-512-010000-
SOUTHWEST INTERIOR

CITY           SKY/WX    TMP DP  RH WIND       PRES   REMARKS
SHELTON        LGT RAIN  65  56  72 SW21G30   29.93S
OLYMPIA        CLOUDY    66  59  78 SW8       29.96F
CHEHALIS       PTSUNNY   70  59  68 SW8       29.97F
KELSO          NOT AVBL
VANCOUVER      CLOUDY    74  52  46 SW6       29.98F
SCAPPOOSE, OR  PTSUNNY   72  53  51 W6        29.97F
PORTLAND, OR   CLOUDY    73  53  49 SW9       29.98F
$$

WAZ021-516-517-010000-
WASHINGTON COAST

CITY           SKY/WX    TMP DP  RH WIND       PRES   REMARKS
FORKS          LGT RAIN  61  60  97 SW8       29.90S
HOQUIAM        CLOUDY    64  59  83 S13       29.96F HAZE
ASTORIA, OR    CLOUDY    66  60  81 SW17G26   29.98F
$$

WAZ019-023-024-040-518-519-010000-
CASCADE MOUNTAINS AND COLUMBIA GORGE

CITY           SKY/WX    TMP DP  RH WIND       PRES   REMARKS
TROUTDALE, OR  CLOUDY    74  53  48 W8        29.98F
THE DALLES, OR FAIR      77  49  37 NW18      29.91F
$$

WAZ026-027-041>044-520-521-010000-
EAST SLOPES

CITY           SKY/WX    TMP DP  RH WIND       PRES   REMARKS
OMAK           CLOUDY    67  50  54 CALM      29.86F
WENATCHEE      CLOUDY    73  43  33 W7        29.88F
ELLENSBURG     PTSUNNY   72  48  42 NW20      29.91F
YAKIMA         PTSUNNY   79  47  32 E7        29.88F
$$

WAZ028-034-035-010000-
COLUMBIA BASIN

CITY           SKY/WX    TMP DP  RH WIND       PRES   REMARKS
EPHRATA        FAIR      76  45  33 SW16G22   29.87F
MOSES LAKE     PTSUNNY   77  45  32 S12       29.88F
PASCO          FAIR      81  47  30 SW16      29.88F
HERMISTON, OR  FAIR      79  46  31 W8        29.88F
$$

WAZ036>038-010000-
NORTHEAST WASHINGTON

CITY           SKY/WX    TMP DP  RH WIND       PRES   REMARKS
SPOKANE GEIGER PTSUNNY   69  44  40 SW15      29.93F
SPOKANE FELTS  PTSUNNY   72  45  37 SW12      29.93F
FAIRCHILD AFB  PTSUNNY   69  45  40 S14G23    29.93F
COEURDALENE,ID FAIR      70  45  40 S10G21    29.93F
DEER PARK      PTSUNNY   68  45  43 SW9       29.93F
$$

WAZ029>033-010000-
SOUTHEAST WASHINGTON

CITY           SKY/WX    TMP DP  RH WIND       PRES   REMARKS
PULLMAN        PTSUNNY   73  43  33 SW10      29.97F
LEWISTON, ID   FAIR      77  42  28 NW9       29.89F
WALLA WALLA    PTSUNNY   79  44  28 SW10      29.90F
PENDLETON, OR  FAIR      77  44  30 CALM      29.91F
$$



USA.gov is the U.S. government's official web portal to all federal, state and local government web resources and services.